Location: Kuppenheim
(48.8299°N, 8.2568°E)
Time: 06:43:59
(UTC+00:00)

Envisat - Pass Details

Date: 05 December 2022
Orbit: 763 x 765 km, 98.2° (Epoch: 04 February)

Event Time Altitude Azimuth Distance (km) Brightness Sun altitude
Rises 03:04:52 0° 20° (NNE) 3,246 6.6 -38.3°
Reaches altitude 10° 03:07:22 10° 29° (NNE) 2,314 5.8 -37.8°
Enters shadow 03:08:35 17° 36° (NE) 1,893 5.4 -37.6°
